Shawnee, OK

12:02 PM CDT on April 20, 2018 (GMT -0500)
Shawnee Municipal

Weather History for KSNL - March, 2014

Change the Weather History Date:

Sunday, March 23, 2014

  Actual Average (KTIK) Record (KTIK)
Temperature  
Mean Temperature 44 °F -  
Max Temperature 55 °F 61 °F 82 °F (2017)
Min Temperature 33 °F 41 °F 28 °F (2002)
Degree Days  
Heating Degree Days 21    
Moisture  
Dew Point 28 °F    
Average Humidity 54    
Maximum Humidity 70    
Minimum Humidity 38    
Precipitation  
Precipitation 0.00 in - - ()
Sea Level Pressure  
Sea Level Pressure 30.36 in    
Wind  
Wind Speed 10 mph (NNE)    
Max Wind Speed 17 mph    
Max Gust Speed 28 mph    
Visibility 10 miles    
Events      
Averages and records for this station are not official NWS values.
T = Trace of Precipitation, MM = Missing Value Source: NWS Daily Summary

Daily Weather History Graph

Daily Weather History Graph

Search for Another Location

Airport or City:

Astronomy

Mar. 23, 2014 Rise Set
Actual Time 7:27 AM CDT 7:41 PM CDT
Civil Twilight 7:01 AM CDT 8:07 PM CDT
Nautical Twilight 6:32 AM CDT 8:37 PM CDT
Astronomical Twilight 6:01 AM CDT 9:07 PM CDT
Moon 1:49 AM CDT (3/23) 12:19 PM CDT (3/23)
Length of Visible Light 13h 05m
Length of Day
12h 14m
Waning Gibbous, 54% of the Moon is Illuminated
Mar 23
Waning Gibbous
Mar 23
Last Quarter
Mar 30
New
Apr 7
First Quarter
Apr 15
Full

Hourly Weather History & Observations

Time (CDT) Temp. Windchill Dew Point Humidity Pressure Visibility Wind Dir Wind Speed Gust Speed Precip Events Conditions
12:15 AM 51.8 °F - 33.8 °F 50% 30.26 in 10.0 mi NNE 11.5 mph 17.3 mph N/A   Overcast
12:35 AM 51.8 °F - 32.0 °F 47% 30.27 in 10.0 mi NNE 11.5 mph 20.7 mph N/A   Overcast
12:55 AM 51.8 °F - 32.0 °F 47% 30.29 in 10.0 mi NNE 11.5 mph - N/A   Overcast
1:15 AM 51.8 °F - 32.0 °F 47% 30.29 in 10.0 mi NNE 11.5 mph 19.6 mph N/A   Overcast
1:35 AM 48.2 °F - 28.4 °F 46% 30.30 in 10.0 mi NNE 15.0 mph 21.9 mph N/A   Overcast
1:55 AM 46.4 °F 39.5 °F 26.6 °F 46% 30.31 in 10.0 mi North 17.3 mph 27.6 mph N/A   Overcast
2:15 AM 44.6 °F 37.2 °F 23.0 °F 43% 30.31 in 10.0 mi North 17.3 mph 21.9 mph N/A   Overcast
2:35 AM 42.8 °F 34.8 °F 23.0 °F 46% 30.33 in 10.0 mi NNE 17.3 mph 23.0 mph N/A   Overcast
2:55 AM 42.8 °F 35.8 °F 23.0 °F 46% 30.33 in 10.0 mi NNE 13.8 mph 19.6 mph N/A   Overcast
3:15 AM 42.8 °F 35.1 °F 23.0 °F 46% 30.34 in 10.0 mi NNE 16.1 mph 21.9 mph N/A   Overcast
3:35 AM 41.0 °F 34.3 °F 21.2 °F 45% 30.35 in 10.0 mi NNE 11.5 mph 17.3 mph N/A   Mostly Cloudy
3:55 AM 41.0 °F 33.9 °F 21.2 °F 45% 30.35 in 10.0 mi North 12.7 mph - N/A   Scattered Clouds
4:15 AM 37.4 °F 30.8 °F 21.2 °F 52% 30.35 in 10.0 mi North 9.2 mph - N/A   Clear
4:35 AM 37.4 °F 30.8 °F 21.2 °F 52% 30.35 in 10.0 mi North 9.2 mph - N/A   Clear
4:55 AM 37.4 °F 30.3 °F 21.2 °F 52% 30.35 in 10.0 mi North 10.4 mph - N/A   Clear
5:15 AM 37.4 °F 30.8 °F 21.2 °F 52% 30.35 in 10.0 mi NNE 9.2 mph - N/A   Clear
5:35 AM 35.6 °F 28.0 °F 21.2 °F 56% 30.37 in 10.0 mi North 10.4 mph - N/A   Clear
5:55 AM 35.6 °F 28.6 °F 19.4 °F 52% 30.38 in 10.0 mi North 9.2 mph - N/A   Clear
6:15 AM 35.6 °F 28.6 °F 19.4 °F 52% 30.39 in 10.0 mi North 9.2 mph - N/A   Scattered Clouds
6:35 AM 35.6 °F 27.1 °F 21.2 °F 56% 30.38 in 10.0 mi North 12.7 mph - N/A   Clear
6:55 AM 35.6 °F 28.0 °F 21.2 °F 56% 30.39 in 10.0 mi North 10.4 mph 18.4 mph N/A   Scattered Clouds
7:15 AM 35.6 °F 28.0 °F 23.0 °F 60% 30.40 in 10.0 mi North 10.4 mph - N/A   Scattered Clouds
7:35 AM 35.6 °F 29.2 °F 23.0 °F 60% 30.40 in 10.0 mi North 8.1 mph - N/A   Clear
7:55 AM 33.8 °F 27.0 °F 23.0 °F 65% 30.43 in 10.0 mi North 8.1 mph - N/A   Clear
8:15 AM 35.6 °F 29.2 °F 24.8 °F 65% 30.44 in 10.0 mi North 8.1 mph - N/A   Clear
8:35 AM 35.6 °F 28.0 °F 24.8 °F 65% 30.44 in 10.0 mi North 10.4 mph - N/A   Clear
8:55 AM 35.6 °F 26.6 °F 26.6 °F 70% 30.45 in 10.0 mi North 13.8 mph 18.4 mph N/A   Clear
9:15 AM 35.6 °F 27.5 °F 26.6 °F 70% 30.44 in 10.0 mi North 11.5 mph 19.6 mph N/A   Clear
9:35 AM 35.6 °F 28.0 °F 26.6 °F 70% 30.46 in 10.0 mi North 10.4 mph 16.1 mph N/A   Clear
9:55 AM 35.6 °F 27.1 °F 26.6 °F 70% 30.46 in 10.0 mi North 12.7 mph 16.1 mph N/A   Clear
10:15 AM 37.4 °F 29.3 °F 28.4 °F 70% 30.48 in 10.0 mi North 12.7 mph - N/A   Clear
10:35 AM 37.4 °F 30.3 °F 28.4 °F 70% 30.48 in 10.0 mi North 10.4 mph - N/A   Clear
10:55 AM 37.4 °F 29.8 °F 28.4 °F 70% 30.48 in 10.0 mi NNE 11.5 mph - N/A   Clear
11:15 AM 37.4 °F 30.3 °F 28.4 °F 70% 30.48 in 10.0 mi North 10.4 mph - N/A   Scattered Clouds
11:35 AM 41.0 °F 35.2 °F 28.4 °F 61% 30.48 in 10.0 mi NNE 9.2 mph - N/A   Scattered Clouds
11:55 AM 41.0 °F 34.7 °F 28.4 °F 61% 30.48 in 10.0 mi North 10.4 mph - N/A   Clear
12:15 PM 42.8 °F 38.6 °F 28.4 °F 57% 30.48 in 10.0 mi NE 6.9 mph - N/A   Clear
12:35 PM 42.8 °F 38.0 °F 28.4 °F 57% 30.46 in 10.0 mi NNE 8.1 mph - N/A   Clear
12:55 PM 44.6 °F 40.7 °F 28.4 °F 53% 30.45 in 10.0 mi North 6.9 mph - N/A   Clear
1:15 PM 44.6 °F 39.7 °F 28.4 °F 53% 30.44 in 10.0 mi North 9.2 mph - N/A   Clear
1:35 PM 44.6 °F 38.8 °F 28.4 °F 53% 30.43 in 10.0 mi NNE 11.5 mph - N/A   Clear
1:55 PM 48.2 °F - 28.4 °F 46% 30.42 in 10.0 mi NE 5.8 mph 16.1 mph N/A   Clear
2:15 PM 48.2 °F - 28.4 °F 46% 30.40 in 10.0 mi NNE 8.1 mph - N/A   Clear
2:35 PM 50.0 °F - 30.2 °F 47% 30.39 in 10.0 mi North 10.4 mph - N/A   Clear
2:55 PM 51.8 °F - 28.4 °F 41% 30.37 in 10.0 mi ENE 5.8 mph - N/A   Clear
3:15 PM 51.8 °F - 30.2 °F 44% 30.36 in 10.0 mi North 5.8 mph - N/A   Clear
3:35 PM 51.8 °F - 28.4 °F 41% 30.35 in 10.0 mi NNE 10.4 mph - N/A   Clear
3:55 PM 53.6 °F - 28.4 °F 38% 30.34 in 10.0 mi North 8.1 mph - N/A   Clear
4:15 PM 53.6 °F - 30.2 °F 41% 30.33 in 10.0 mi North 4.6 mph - N/A   Clear
4:35 PM 53.6 °F - 30.2 °F 41% 30.33 in 10.0 mi ENE 4.6 mph - N/A   Clear
4:55 PM 53.6 °F - 30.2 °F 41% 30.31 in 10.0 mi ENE 4.6 mph - N/A   Clear
5:15 PM 55.4 °F - 32.0 °F 41% 30.31 in 10.0 mi NE 5.8 mph - N/A   Clear
5:35 PM 53.6 °F - 30.2 °F 41% 30.30 in 10.0 mi North 3.5 mph - N/A   Clear
5:55 PM 53.6 °F - 30.2 °F 41% 30.31 in 10.0 mi ENE 3.5 mph - N/A   Clear
6:15 PM 53.6 °F - 32.0 °F 44% 30.30 in 10.0 mi Calm Calm - N/A   Clear
6:35 PM 53.6 °F - 32.0 °F 44% 30.30 in 10.0 mi ENE 3.5 mph - N/A   Clear
6:55 PM 51.8 °F - 32.0 °F 47% 30.30 in 10.0 mi ENE 3.5 mph - N/A   Clear
7:15 PM 51.8 °F - 30.2 °F 44% 30.29 in 10.0 mi Calm Calm - N/A   Clear
7:35 PM 51.8 °F - 30.2 °F 44% 30.29 in 10.0 mi ENE 3.5 mph - N/A   Clear
7:55 PM 50.0 °F - 30.2 °F 47% 30.29 in 10.0 mi Calm Calm - N/A   Clear
8:15 PM 46.4 °F - 32.0 °F 57% 30.29 in 10.0 mi Calm Calm - N/A   Clear
8:35 PM 44.6 °F - 30.2 °F 57% 30.29 in 10.0 mi Calm Calm - N/A   Clear
8:55 PM 44.6 °F - 30.2 °F 57% 30.29 in 10.0 mi Calm Calm - N/A   Clear
9:15 PM 44.6 °F 43.1 °F 32.0 °F 61% 30.29 in 10.0 mi East 3.5 mph - N/A   Clear
9:35 PM 42.8 °F 41.1 °F 32.0 °F 66% 30.29 in 10.0 mi East 3.5 mph - N/A   Clear
9:55 PM 42.8 °F 41.1 °F 30.2 °F 61% 30.29 in 10.0 mi East 3.5 mph - N/A   Clear
10:15 PM 42.8 °F - 30.2 °F 61% 30.29 in 10.0 mi Calm Calm - N/A   Clear
10:35 PM 42.8 °F 41.1 °F 32.0 °F 66% 30.29 in 10.0 mi East 3.5 mph - N/A   Clear
10:55 PM 42.8 °F - 32.0 °F 66% 30.29 in 10.0 mi Calm Calm - N/A   Clear
11:15 PM 41.0 °F 39.0 °F 32.0 °F 70% 30.29 in 10.0 mi East 3.5 mph - N/A   Clear
11:35 PM 41.0 °F 39.0 °F 30.2 °F 65% 30.29 in 10.0 mi East 3.5 mph - N/A   Clear
11:55 PM 41.0 °F - 30.2 °F 65% 30.29 in 10.0 mi Calm Calm - N/A   Clear